[Date Prev][Date Next][Thread Prev][Thread Next] - [Date Index][Thread Index][Author Index]
2 Line ISS Keps 6-13
- Subject: [sarex] 2 Line ISS Keps 6-13
- From: "Dave Larsen PhD" <doc@xxxxxxxxxxx>
- Date: Fri, 13 Jun 2003 03:41:34 -0700
ISS
1 25544U 98067A 03164.14233692 .00049093 00000-0 60907-3 0 1121
2 25544 51.6336 40.5643 0006601 250.3433 247.4387 15.59504561260375
----
Via the sarex mailing list at AMSAT.ORG courtesy of AMSAT-NA.
To unsubscribe, send "unsubscribe sarex" to Majordomo@amsat.org
AMSAT Home